Location: Poughquag
(41.6090°N, 73.6820°W)
Time: 11:18:06
(UTC-04:00)

ACS3 Solar Sail - Pass Details

Date: 18 June 2024
Orbit: 992 x 1023 km, 97.4° (Epoch: 12 July)

Event Time Altitude Azimuth Distance (km) Brightness Sun altitude
Exits shadow 21:57:51 17° 143° (SE) 2,277 6.1 -13.0°
Maximum altitude 22:02:31 54° 72° (ENE) 1,200 5.1 -13.6°
Drops below altitude 10° 22:08:33 10° 357° (N) 2,768 8.0 -14.3°
Sets 22:11:05 0° 353° (N) 3,719 8.9 -14.6°
